• In Latvia
  • List of Countries
  • For 7 days
  • Water Temperature
  • Satellite Maps
  • Weather Map
  • Weather Widgets
  • user-avatar
    Login

    Hourly Weather Piltene

    Today, 22 November, Wednesday

    Time Temperature Precipitation Wind Pressure Humidity
    00:00 0°C° 0 mm 3 mps 757 mmHg 89%
    01:00 +1°C° 0 mm 2 mps 757 mmHg 88%
    02:00 -1°C° 0 mm 2 mps 757 mmHg 88%
    03:00 -1°C° 0 mm 2 mps 757 mmHg 88%
    04:00 -1°C° 0 mm 2 mps 758 mmHg 88%
    05:00 -1°C° 0 mm 2 mps 758 mmHg 88%
    06:00 -1°C° 0 mm 2 mps 758 mmHg 88%
    07:00 -1°C° 0 mm 2 mps 758 mmHg 88%
    08:00 -1°C° 0 mm 2 mps 758 mmHg 85%
    09:00 +1°C° 0 mm 2 mps 758 mmHg 82%
    10:00 +1°C° 0 mm 2 mps 758 mmHg 79%
    11:00 +1°C° 0 mm 3 mps 759 mmHg 78%
    12:00 +1°C° 0 mm 3 mps 759 mmHg 77%
    13:00 0°C° 0 mm 4 mps 759 mmHg 78%
    14:00 -1°C° 0 mm 4 mps 759 mmHg 80%
    15:00 -1°C° 0 mm 4 mps 759 mmHg 82%
    16:00 -2°C° 0 mm 5 mps 759 mmHg 85%
    17:00 -2°C° 0 mm 5 mps 759 mmHg 84%
    18:00 -3°C° 0 mm 6 mps 759 mmHg 82%
    19:00 -2°C° 0 mm 6 mps 758 mmHg 81%
    20:00 -2°C° 0 mm 7 mps 758 mmHg 78%
    21:00 -2°C° 0 mm 7 mps 758 mmHg 75%
    22:00 -2°C° 0 mm 7 mps 758 mmHg 72%
    23:00 -2°C° 0.4 mm 8 mps 757 mmHg 74%

    Tomorrow, 23 November, Thursday

    Time Temperature Precipitation Wind Pressure Humidity
    00:00 -2°C° 0.4 mm 8 mps 757 mmHg 76%
    01:00 -3°C° 0.4 mm 9 mps 757 mmHg 78%
    02:00 -3°C° 0.6 mm 9 mps 756 mmHg 81%
    03:00 -3°C° 0.6 mm 9 mps 756 mmHg 84%
    04:00 -3°C° 0.6 mm 9 mps 756 mmHg 86%
    05:00 -1°C° 0.1 mm 9 mps 755 mmHg 87%
    06:00 -1°C° 0.1 mm 8 mps 755 mmHg 87%
    07:00 -1°C° 0.1 mm 8 mps 755 mmHg 87%
    08:00 0°C° 0 mm 8 mps 755 mmHg 88%
    09:00 +1°C° 0 mm 8 mps 755 mmHg 88%
    10:00 +1°C° 0 mm 8 mps 755 mmHg 89%
    11:00 +2°C° 0 mm 8 mps 755 mmHg 88%
    12:00 +2°C° 0 mm 8 mps 755 mmHg 88%
    13:00 +2°C° 0 mm 8 mps 755 mmHg 88%
    14:00 +2°C° 0 mm 8 mps 755 mmHg 89%
    15:00 +2°C° 0 mm 8 mps 754 mmHg 90%
    16:00 +2°C° 0 mm 8 mps 754 mmHg 90%
    17:00 +2°C° 0 mm 8 mps 754 mmHg 90%
    18:00 +2°C° 0 mm 8 mps 754 mmHg 90%
    19:00 +2°C° 0 mm 8 mps 754 mmHg 89%
    20:00 +2°C° 0 mm 8 mps 754 mmHg 89%
    21:00 +2°C° 0 mm 8 mps 754 mmHg 88%
    22:00 +2°C° 0 mm 8 mps 754 mmHg 88%
    23:00 +2°C° 0.1 mm 8 mps 754 mmHg 88%

    Day after tomorrow, 24 November, Friday

    Time Temperature Precipitation Wind Pressure Humidity
    00:00 +4°C° 0.1 mm 8 mps 754 mmHg 88%
    01:00 +4°C° 0.1 mm 8 mps 754 mmHg 88%
    02:00 +4°C° 0.2 mm 7 mps 754 mmHg 88%
    03:00 +5°C° 0.2 mm 7 mps 754 mmHg 89%
    04:00 +5°C° 0.2 mm 7 mps 754 mmHg 90%
    05:00 +5°C° 0 mm 7 mps 755 mmHg 90%
    06:00 +7°C° 0 mm 6 mps 755 mmHg 90%
    07:00 +7°C° 0 mm 6 mps 756 mmHg 90%
    08:00 +7°C° 0 mm 5 mps 756 mmHg 89%
    09:00 +6°C° 0 mm 5 mps 757 mmHg 88%
    10:00 +6°C° 0 mm 5 mps 757 mmHg 86%
    11:00 +6°C° 0 mm 4 mps 757 mmHg 86%
    12:00 +7°C° 0 mm 4 mps 757 mmHg 85%
    13:00 +7°C° 0 mm 4 mps 757 mmHg 84%
    14:00 +7°C° 0 mm 4 mps 757 mmHg 87%
    15:00 +6°C° 0 mm 5 mps 756 mmHg 90%
    16:00 +6°C° 0 mm 5 mps 756 mmHg 93%
    17:00 +5°C° 0 mm 6 mps 755 mmHg 92%
    18:00 +5°C° 0 mm 7 mps 755 mmHg 91%
    19:00 +6°C° 0 mm 8 mps 754 mmHg 90%
    20:00 +6°C° 0.3 mm 9 mps 753 mmHg 89%
    21:00 +6°C° 0.3 mm 9 mps 752 mmHg 88%
    22:00 +6°C° 0.3 mm 9 mps 752 mmHg 87%
    23:00 +7°C° 0.2 mm 10 mps 752 mmHg 86%

    25 November, Saturday

    Time Temperature Precipitation Wind Pressure Humidity
    00:00 +7°C° 0.2 mm 10 mps 751 mmHg 85%
    01:00 +7°C° 0.2 mm 11 mps 751 mmHg 84%
    02:00 +7°C° 0.1 mm 10 mps 752 mmHg 81%
    03:00 +6°C° 0.1 mm 10 mps 753 mmHg 78%
    04:00 +5°C° 0.1 mm 9 mps 753 mmHg 76%
    05:00 +5°C° 0.1 mm 8 mps 755 mmHg 77%
    06:00 +4°C° 0.1 mm 7 mps 756 mmHg 78%
    07:00 +4°C° 0.1 mm 6 mps 757 mmHg 79%
    08:00 +5°C° 0 mm 5 mps 757 mmHg 78%
    09:00 +5°C° 0 mm 5 mps 758 mmHg 77%
    10:00 +5°C° 0 mm 4 mps 758 mmHg 76%
    11:00 +5°C° 0 mm 4 mps 758 mmHg 76%
    12:00 +5°C° 0 mm 4 mps 758 mmHg 75%
    13:00 +5°C° 0 mm 3 mps 759 mmHg 74%
    14:00 +5°C° 0 mm 3 mps 759 mmHg 77%
    15:00 +4°C° 0 mm 3 mps 759 mmHg 80%
    16:00 +4°C° 0 mm 3 mps 759 mmHg 83%
    17:00 +3°C° 0 mm 3 mps 758 mmHg 84%
    18:00 +3°C° 0 mm 3 mps 758 mmHg 85%
    19:00 +3°C° 0 mm 3 mps 758 mmHg 86%
    20:00 +3°C° 0.4 mm 3 mps 757 mmHg 85%
    21:00 +3°C° 0.4 mm 3 mps 756 mmHg 85%
    22:00 +3°C° 0.4 mm 4 mps 756 mmHg 84%
    23:00 +3°C° 0.8 mm 4 mps 755 mmHg 84%

    26 November, Sunday

    Time Temperature Precipitation Wind Pressure Humidity
    00:00 +2°C° 0.8 mm 5 mps 754 mmHg 83%
    01:00 +2°C° 0.8 mm 6 mps 753 mmHg 83%
    02:00 +2°C° 1 mm 6 mps 752 mmHg 84%
    03:00 +2°C° 1 mm 7 mps 752 mmHg 86%
    04:00 +2°C° 1 mm 7 mps 751 mmHg 87%
    05:00 +2°C° 1.2 mm 7 mps 750 mmHg 88%
    06:00 +2°C° 1.2 mm 7 mps 750 mmHg 89%
    07:00 +2°C° 1.2 mm 7 mps 750 mmHg 90%
    08:00 +2°C° 1.2 mm 7 mps 750 mmHg 88%
    09:00 +1°C° 1.2 mm 8 mps 750 mmHg 86%
    10:00 +1°C° 1.2 mm 8 mps 750 mmHg 84%
    11:00 +1°C° 0.5 mm 8 mps 751 mmHg 81%
    12:00 +3°C° 0.5 mm 7 mps 752 mmHg 78%
    13:00 +3°C° 0.5 mm 7 mps 752 mmHg 75%
    14:00 +3°C° 0.1 mm 7 mps 753 mmHg 76%
    15:00 +3°C° 0.1 mm 6 mps 754 mmHg 76%
    16:00 +2°C° 0.1 mm 6 mps 755 mmHg 76%
    17:00 +2°C° 0 mm 5 mps 755 mmHg 77%
    18:00 +2°C° 0 mm 5 mps 755 mmHg 79%
    19:00 +2°C° 0 mm 5 mps 756 mmHg 80%
    20:00 +1°C° 0 mm 5 mps 756 mmHg 81%
    21:00 +1°C° 0 mm 5 mps 756 mmHg 82%
    22:00 +1°C° 0 mm 5 mps 756 mmHg 82%
    23:00 +1°C° 0.2 mm 5 mps 756 mmHg 82%

    27 November, Monday

    Time Temperature Precipitation Wind Pressure Humidity
    00:00 +1°C° 0.2 mm 6 mps 756 mmHg 83%
    01:00 +1°C° 0.2 mm 6 mps 756 mmHg 83%
    02:00 +1°C° 0.2 mm 6 mps 756 mmHg 83%
    03:00 0°C° 0.2 mm 7 mps 756 mmHg 83%
    04:00 0°C° 0.2 mm 7 mps 756 mmHg 83%
    05:00 -1°C° 0.1 mm 7 mps 756 mmHg 83%
    06:00 -1°C° 0.1 mm 8 mps 755 mmHg 83%
    07:00 -1°C° 0.1 mm 8 mps 755 mmHg 83%
    08:00 -1°C° 0.9 mm 8 mps 755 mmHg 83%
    09:00 -1°C° 0.9 mm 9 mps 755 mmHg 83%
    10:00 -1°C° 0.9 mm 9 mps 755 mmHg 83%
    11:00 -1°C° 0.4 mm 9 mps 754 mmHg 82%
    12:00 0°C° 0.4 mm 9 mps 754 mmHg 82%
    13:00 0°C° 0.4 mm 9 mps 754 mmHg 81%
    14:00 0°C° 0.4 mm 9 mps 753 mmHg 82%
    15:00 0°C° 0.4 mm 8 mps 753 mmHg 83%
    16:00 0°C° 0.4 mm 8 mps 753 mmHg 84%
    17:00 +2°C° 0.4 mm 7 mps 753 mmHg 84%
    18:00 +2°C° 0.4 mm 7 mps 753 mmHg 85%
    19:00 +2°C° 0.4 mm 6 mps 753 mmHg 85%
    20:00 +2°C° 0.2 mm 6 mps 753 mmHg 86%
    21:00 +2°C° 0.2 mm 5 mps 753 mmHg 86%
    22:00 +2°C° 0.2 mm 5 mps 753 mmHg 87%
    23:00 +2°C° 0.1 mm 5 mps 753 mmHg 87%
    Show more